Location: Daerah Kuala Lumpur
(3.1167°N, 101.6833°E)
Time: 07:35:56
(UTC+00:00)

CZ-4C R/B - Visible Passes

Search period start: 19 January 2026 00:00
Search period end: 29 January 2026 00:00
Orbit: 484 x 1495 km, 63.4° (Epoch: 18 January)

Date Brightness Start Highest point End Pass type
(mag) Time Alt. Az. Time Alt. Az. Time Alt. Az.
26 Jan 3.4 12:51:22 10° SSE 12:52:12 14° SSE 12:52:12 14° SSE visible
27 Jan 3.2 13:20:21 10° SSW 13:21:53 23° SW 13:21:53 23° SW visible
28 Jan 3.1 12:04:34 10° SE 12:05:59 12° ESE 12:06:39 11° ESE visible
